GW4679 Weather Reports


Display with metric or nautical units.
time (UTC)temp
F
wind
direction
speed
MPH
gust
MPH
rain 1hr
in
rain 24hr
in
rain mn
in
humidity
%
barometer
mb
20260503024523 76 258 0.0 1.0 0.00 0.00 0.00 81 1014.6
20260503023040 77 258 0.0 0.0 0.00 0.00 0.00 80 1014.4
20260503021509 77 258 0.0 0.0 0.00 0.00 0.00 78 1014.5
20260503020016 78 256 0.0 1.0 0.00 0.00 0.00 77 1014.2
20260503014520 78 286 0.0 1.0 0.00 0.00 0.00 75 1014.4
20260503013022 79 266 0.0 1.0 0.00 0.00 0.00 74 1014.2
20260503011522 79 269 0.0 2.0 0.00 0.00 0.00 72 1014.1
20260503010014 80 273 0.0 2.0 0.00 0.00 0.00 71 1013.7
20260503004515 80 267 1.0 4.0 0.00 0.00 0.00 69 1013.5
20260503003022 81 285 0.0 4.0 0.00 0.00 0.00 67 1013.4
20260503001524 82 285 0.0 4.0 0.00 0.00 0.00 65 1013.3
20260503000026 83 298 0.0 4.0 0.00 0.00 0.00 62 1013.0
20260502234514 84 285 1.0 5.0 0.00 0.00 0.00 57 1012.7
20260502233016 85 268 1.0 5.0 0.00 0.00 0.00 52 1012.5
20260502231521 87 271 2.0 8.0 0.00 0.00 0.00 48 1012.1
20260502230025 89 302 2.0 9.0 0.00 0.00 0.00 46 1011.9
20260502224525 91 266 1.0 8.0 0.00 0.00 0.00 49 1011.7
20260502223011 90 249 1.0 8.0 0.00 0.00 0.00 47 1011.5
20260502221516 91 309 2.0 7.0 0.00 0.00 0.00 45 1011.7
20260502220019 91 212 1.0 7.0 0.00 0.00 0.00 44 1011.6
20260502214525 91 274 3.0 7.0 0.00 0.00 0.00 43 1011.5
20260502213029 92 269 4.0 10.0 0.00 0.00 0.00 43 1011.4
20260502211510 91 294 5.0 10.0 0.00 0.00 0.00 41 1011.1
20260502210010 91 300 5.0 12.0 0.00 0.00 0.00 41 1011.1
20260502204503 92 294 6.0 12.0 0.00 0.00 0.00 36 1011.0
20260502203015 93 148 2.0 9.0 0.00 0.00 0.00 40 1011.0
20260502201514 93 276 2.0 12.0 0.00 0.00 0.00 41 1011.1
20260502200012 92 264 3.0 10.0 0.00 0.00 0.00 42 1011.5
20260502193004 91 196 4.0 11.0 0.00 0.00 0.00 48 1011.8
20260502191513 91 217 4.0 11.0 0.00 0.00 0.00 49 1011.8
20260502190012 92 312 4.0 11.0 0.00 0.00 0.00 49 1012.0
20260502184526 92 304 4.0 11.0 0.00 0.00 0.00 46 1012.0
20260502181506 92 153 2.0 11.0 0.00 0.00 0.00 50 1012.2
20260502163020 90 214 3.0 9.0 0.00 0.00 0.00 59 1012.6
20260502151523 89 200 4.0 12.0 0.00 0.00 0.00 64 1013.0
20260502123027 82 141 1.0 5.0 0.00 0.00 0.00 80 1012.7
20260502121510 81 193 1.0 3.0 0.00 0.00 0.00 82 1012.5
20260502114519 78 158 0.0 3.0 0.00 0.00 0.00 88 1012.3
20260502113023 77 182 0.0 0.0 0.00 0.00 0.00 89 1012.6
20260502101523 76 216 0.0 1.0 0.00 0.00 0.00 90 1012.3
20260502091521 76 163 0.0 2.0 0.00 0.00 0.00 91 1012.3
20260502071517 71 224 0.0 0.0 0.00 0.00 0.00 92 1012.3
20260502070020 71 224 0.0 0.0 0.00 0.00 0.00 92 1012.4
20260502064524 71 224 0.0 0.0 0.00 0.00 0.00 92 1012.4
20260502063026 70 224 0.0 0.0 0.00 0.00 0.00 92 1012.5
20260502061515 70 224 0.0 0.0 0.00 0.00 0.00 91 1012.6
20260502060022 70 224 0.0 0.0 0.00 0.00 0.00 91 1012.6
20260502054506 70 224 0.0 0.0 0.00 0.00 0.00 91 1012.6
20260502053009 70 224 0.0 0.0 0.00 0.00 0.00 91 1012.6
20260502051510 71 224 0.0 0.0 0.00 0.00 0.00 90 1012.7
20260502050016 71 224 0.0 0.0 0.00 0.00 0.00 91 1012.9
20260502044518 71 224 0.0 0.0 0.00 0.00 0.00 90 1013.2
20260502043004 71 224 0.0 0.0 0.00 0.00 0.00 89 1013.3
20260502041516 72 224 0.0 1.0 0.00 0.00 0.00 89 1013.4
20260502040013 73 224 0.0 0.0 0.00 0.00 0.00 88 1013.3
20260502034518 73 224 0.0 0.0 0.00 0.00 0.00 87 1013.4
20260502033021 74 224 0.0 0.0 0.00 0.00 0.00 87 1013.3
20260502031506 74 224 0.0 0.0 0.00 0.00 0.00 86 1013.3
20260502030019 75 224 0.0 0.0 0.00 0.00 0.00 85 1013.3